Regional Weather Roundup
Issued by NWS

Home | Current Version | Previous Version | Text Only | Print | Product List | Glossary Off
Versions: 1 2 3 4 5 6 7 8 9 10 11 12 13 14 15 16 17 18 19 20 21 22 23 24 25 26 27 28 29 30 31 32 33 34 35 36 37 38 39 40 41 42 43 44 45 46 47 48 49 50

000
ASUS43 KMPX 210410
RWRMN
WEATHER ROUNDUP FOR MINNESOTA
NATIONAL WEATHER SERVICE TWIN CITIES/CHANHASSEN MN
1100 PM CDT WED SEP 20 2017


NOTE: "FAIR" INDICATES FEW OR NO CLOUDS BELOW 12,000 FEET WITH NO
SIGNIFICANT WEATHER AND/OR OBSTRUCTIONS TO VISIBILITY. N/A MEANS
CURRENT SKY AND/OR WEATHER CONDITIONS ARE NOT AVAILABLE.

MNZ060>063-068>070-210500-
   Twin Cities Metro

CITY           SKY/WX    TMP DP  RH WIND       PRES   REMARKS
TWIN CITIES    CLEAR     61  52  72 CALM      29.94R
ST PAUL        CLEAR     59  53  80 CALM      29.94R
CRYSTAL        CLEAR     54  49  83 CALM      29.93R
BLAINE         CLEAR     55  52  88 CALM      29.95R
LAKEVILLE      CLEAR     54  54 100 CALM      29.95R
EDEN PRAIRIE   CLEAR     60  54  80 N5        29.93R
SOUTH ST PAUL  CLEAR     58  53  81 CALM      29.94R
LAKE ELMO      FAIR      54  52  94 CALM      29.96R
$$
MNZ001>005-007-008-013>017-022>024-027-028-210500-
   Northwest Minnesota

CITY           SKY/WX    TMP DP  RH WIND       PRES   REMARKS
BEMIDJI        CLEAR     52  43  72 S5        29.91R
HALLOCK        CLOUDY    54  45  71 S10       29.78S
ROSEAU         CLEAR     54  45  71 S9        29.83R
WARROAD        CLEAR     54  45  71 S3        29.83R
THIEF RVR FALL CLEAR     55  44  66 S7        29.86R
CROOKSTON      CLEAR     57  45  62 S9        29.84R
FOSSTON        CLEAR     54  48  82 SE6       29.88R
DETROIT LAKES  CLEAR     54  46  76 S7        29.91R
MOORHEAD       CLEAR     55  45  67 SE8       29.87R
PARK RAPIDS    CLEAR     54  46  74 SE6       29.92R
MAHNOMEN         N/A     51  43  74 SE6       29.88R
$$
MNZ006-009>011-018-025>026-210500-
   North Central Minnesota

CITY           SKY/WX    TMP DP  RH WIND       PRES   REMARKS
BAUDETTE       CLEAR     52  45  77 S6        29.85R
FLAG ISLAND    CLEAR     61  46  59 S8        29.81R
INTL FALLS     CLEAR     45  42  89 SE3       29.88R
WASKISH        CLEAR     52  45  76 S6        29.89R
BIG FORK       CLEAR     45  43  93 CALM      29.92R
LONGVILLE      CLEAR     45  43  93 CALM      29.94R
GRAND RAPIDS   CLEAR     46  45  96 S5        29.96R
CRANE LAKE     CLEAR     43  41  93 CALM      29.93R
ORR            CLEAR     48  45  87 CALM      29.90R
COOK           CLEAR     45  45 100 CALM      29.94R
WALKER         FAIR      51  44  78 S5        29.92R
$$
MNZ012-019>021-037-210500-
   Northeast Minnesota

CITY           SKY/WX    TMP DP  RH WIND       PRES   REMARKS
DULUTH         CLEAR     50  46  86 CALM      29.95R
ELY            CLEAR     45  45 100 SE3       29.95R
HIBBING        CLEAR     41  41 100 CALM      29.94R FOG
EVELETH        CLEAR     46  43  91 CALM      29.96R
DULUTH HARBOR  CLEAR     57  54  88 S5        29.95R
TWO HARBORS    CLEAR     54  48  82 N6        29.93R
SILVER BAY     CLEAR     46  46 100 CALM      29.93R
GRAND MARAIS     N/A     58  52  80 NW7       29.92R
G MARAIS ARPRT CLEAR     48  46  93 CALM      29.96R
$$
MNZ029>031-032-039>041-046>048-054>057-064-210500-
   West Central Minnesota

CITY           SKY/WX    TMP DP  RH WIND       PRES   REMARKS
FERGUS FALLS   CLEAR     55  45  67 SE6       29.90R
WHEATON        CLEAR     52  45  76 SE9       29.91R
MORRIS         CLEAR     52  46  82 SE5       29.91R
ALEXANDRIA     CLEAR     53  46  77 S7        29.94R
ELBOW LAKE     FAIR      55  45  68 CALM      29.91S
WADENA         CLEAR     48  43  81 CALM      29.92S
GLENWOOD       CLEAR     52  46  82 E3        29.94R
APPLETON       CLEAR     54  46  76 SE6       29.91R
BENSON         CLEAR     54  46  76 SE5       29.93R
ORTONVILLE     CLEAR     54  46  76 NE7       29.90R
MADISON        CLEAR     55  48  76 S3        29.91R
WILLMAR        FAIR      52  50  93 CALM      29.95R
$$
MNZ033>034-036-042>043-049>051-058-059-210500-
   Central Minnesota

CITY           SKY/WX    TMP DP  RH WIND       PRES   REMARKS
ST CLOUD       CLEAR     49  49 100 CALM      29.94R
SAUK CENTRE    FAIR      51  47  86 CALM      29.94S
PAYNESVILLE    CLEAR     48  47  97 CALM      29.94S
AITKIN         CLEAR     45  43  93 CALM      29.94R
PINE RIVER     CLEAR     43  41  93 CALM      29.97R
BRAINERD       CLEAR     47  46  97 CALM      29.95R
LONG PRAIRIE   FAIR      48  48 100 CALM      29.95R
LITTLE FALLS   CLEAR     46  43  87 CALM      29.94
LITCHFIELD     CLEAR     54  54 100 CALM      29.94R
BUFFALO        CLEAR     51  47  86 CALM      29.96R
MAPLE LAKE     CLEAR     49  49  98 CALM      29.95R
HUTCHINSON     CLEAR     49  49  99 CALM      29.95R
$$
MNZ037-044-045-052-053-210500-
   East Central Minnesota

CITY           SKY/WX    TMP DP  RH WIND       PRES   REMARKS
PRINCETON      CLEAR     46  45  93 CALM      29.95R
MORA           CLEAR     48  46  93 N3        29.96R
CAMBRIDGE      CLEAR     50  45  81 CALM      29.95R
RUSH CITY      MOCLDY    48  47  95 CALM      29.95R
MOOSE LAKE     CLEAR     45  43  93 CALM      29.93R
HINCKLEY       FAIR      46  46 100 CALM      29.95R
CLOQUET        CLEAR     46  45  93 NW3       29.95R
MCGREGOR       CLEAR     48  45  87 CALM      29.95R
$$
MNZ071>073-080-081-089-090-097-098-210500-
   Southwest Minnesota

CITY           SKY/WX    TMP DP  RH WIND       PRES   REMARKS
MONTEVIDEO     CLEAR     55  48  76 S6        29.93R
GRANITE FALLS  CLEAR     53  50  87 SE5       29.94R
CANBY          CLEAR     52  48  87 CALM      29.92S
MARSHALL       CLEAR     54  48  80 S8        29.93R
REDWOOD FALLS  CLEAR     57  50  77 CALM      29.93R
OLIVIA         CLEAR     54  48  82 CALM      29.93R
PIPESTONE      CLEAR     55  46  71 E5        29.94R
WORTHINGTON    CLEAR     53  48  83 NW3       29.95R
JACKSON        CLEAR     54  50  87 CALM      29.95R
TRACY          CLEAR     54  49  85 CALM      29.94R
SLAYTON        CLEAR     54  47  78 CALM      29.95R
$$
MNZ065>067-074>077-082>085-091>093-210500-
   South Central Minnesota

CITY           SKY/WX    TMP DP  RH WIND       PRES   REMARKS
MANKATO        CLEAR     58  49  72 NE5       29.95R
NEW ULM        CLEAR     57  48  72 CALM      29.94R
ST JAMES       CLEAR     54  50  87 CALM      29.95R
FAIRMONT       CLEAR     55  52  89 CALM      29.94R
GLENCOE        CLEAR     53  53  98 CALM      29.94R
FARIBAULT      CLEAR     52  52 100 CALM      29.95R
OWATONNA       CLEAR     52  50  93 CALM      29.95R
WASECA         CLEAR     52  50  93 NE3       29.96R
ALBERT LEA     CLEAR     57  55  94 CALM      29.94R
$$
MNZ078>079-086>088-094>096-210500-
   Southeast Minnesota

CITY           SKY/WX    TMP DP  RH WIND       PRES   REMARKS
ROCHESTER      CLEAR     61  54  77 N5        29.96R
RED WING       CLEAR     55  52  88 CALM      29.94R
STANTON        CLEAR     55  52  92 CALM      29.94R
DODGE CENTER   CLEAR     57  52  82 CALM      29.96R
WINONA         CLEAR     59  57  94 CALM      29.96R
AUSTIN         CLEAR     55  52  88 CALM      29.95R
PRESTON        CLEAR     61  53  76 NE3       29.97R
$$
ABBREVIATIONS USED IN REMARKS
   TC - TEMPERATURES IN CELSIUS
  WCI - WIND CHILL INDEX
   HX - HEAT INDEX
  VSB - VISIBILITY
$$




USA.gov is the U.S. government's official web portal to all federal, state and local government web resources and services.